De Queen, AR

8:09 PM CST on January 22, 2020 (GMT -0600)
Helms Sevier County

Weather History for KDEQ - October, 2019

Change the Weather History Date:

Wednesday, October 9, 2019

  Actual Average Record
Temperature  
Mean Temperature 64 °F 65 °F  
Max Temperature 82 °F 78 °F 96 °F (1963)
Min Temperature 47 °F 52 °F 30 °F (2000)
Degree Days  
Heating Degree Days 0 3  
Month to date heating degree days 2 19  
Since 1 July heating degree days 2 28  
Cooling Degree Days 0 3  
Month to date cooling degree days 77 31  
Year to date cooling degree days 2294 1896  
Growing Degree Days 14 (Base 50)    
Moisture  
Dew Point 54 °F    
Average Humidity 70    
Maximum Humidity 93    
Minimum Humidity 40    
Precipitation  
Precipitation 0.00 in 0.12 in 4.18 in (1993)
Month to date precipitation 0.37 1.36  
Year to date precipitation 42.46 36.56  
Snow  
Snow 0.00 in - - ()
Month to date snowfall 0.0  
Since 1 July snowfall 0.0  
Since 1 September snowfall 0.0  
Snow Depth 0.00 in    
Sea Level Pressure  
Sea Level Pressure 29.94 in    
Wind  
Wind Speed 2 mph ()    
Max Wind Speed 10 mph    
Max Gust Speed 15 mph    
Visibility 10.0 miles    
Events      
T = Trace of Precipitation, MM = Missing Value Source: Averaged Metar Reports

Daily Weather History Graph

Daily Weather History Graph

Search for Another Location

Airport or City:

Astronomy

Oct. 09, 2019 Rise Set
Actual Time 7:17 AM CDT 6:51 PM CDT
Civil Twilight 6:52 AM CDT 7:16 PM CDT
Nautical Twilight 6:23 AM CDT 7:45 PM CDT
Astronomical Twilight 5:54 AM CDT 8:14 PM CDT
Moon 5:09 PM CDT (10/9) 3:20 AM CDT (10/9)
Length of Visible Light 12h 23m
Length of Day
11h 33m
Waxing Gibbous, 85% of the Moon is Illuminated
Oct 9
Waxing Gibbous
Oct 13
Full
Oct 21
Last Quarter
Oct 27
New
Nov 4
First Quarter

Hourly Weather History & Observations

Time (CDT) Temp. Heat Index Dew Point Humidity Pressure Visibility Wind Dir Wind Speed Gust Speed Precip Events Conditions
12:53 AM 54.0 °F - 48.0 °F 80% 30.00 in 10.0 mi Calm Calm - N/A   Clear
1:53 AM 51.1 °F - 48.0 °F 89% 30.01 in 10.0 mi Calm Calm - N/A   Clear
2:53 AM 50.0 °F - 46.9 °F 89% 30.00 in 10.0 mi Calm Calm - N/A   Clear
3:53 AM 48.9 °F - 46.0 °F 90% 30.00 in 10.0 mi Calm Calm - N/A   Clear
4:53 AM 48.0 °F - 46.0 °F 93% 30.00 in 9.0 mi Calm Calm - N/A   Clear
5:53 AM 48.9 °F - 46.0 °F 90% 29.99 in 10.0 mi ENE 4.6 mph - N/A   Scattered Clouds
6:53 AM 50.0 °F - 46.0 °F 86% 30.00 in 10.0 mi Calm Calm - N/A   Scattered Clouds
7:53 AM 53.1 °F - 50.0 °F 89% 30.01 in 10.0 mi Calm Calm - N/A   Mostly Cloudy
8:53 AM 57.9 °F - 51.1 °F 78% 30.03 in 10.0 mi Calm Calm - N/A   Scattered Clouds
9:53 AM 64.0 °F - 53.1 °F 67% 30.02 in 10.0 mi ENE 4.6 mph - N/A   Clear
10:53 AM 69.1 °F - 57.0 °F 65% 30.01 in 10.0 mi East 4.6 mph - N/A   Clear
11:53 AM 75.0 °F - 59.0 °F 57% 29.99 in 10.0 mi Variable 4.6 mph - N/A   Clear
12:53 PM 77.0 °F - 57.9 °F 52% 29.96 in 10.0 mi South 10.4 mph - N/A   Clear
1:53 PM 79.0 °F - 59.0 °F 50% 29.93 in 10.0 mi SSW 6.9 mph - N/A   Clear
2:53 PM 81.0 °F 81.1 °F 57.9 °F 45% 29.89 in 10.0 mi SSE 10.4 mph - N/A   Clear
3:53 PM 82.0 °F 81.7 °F 57.0 °F 42% 29.87 in 10.0 mi South 6.9 mph - N/A   Clear
4:53 PM 82.0 °F 81.6 °F 55.9 °F 41% 29.86 in 10.0 mi SE 8.1 mph - N/A   Clear
5:53 PM 80.1 °F 80.4 °F 57.0 °F 45% 29.85 in 10.0 mi SSE 4.6 mph - N/A   Clear
6:53 PM 73.9 °F - 59.0 °F 59% 29.85 in 10.0 mi ESE 4.6 mph - N/A   Clear
7:53 PM 72.0 °F - 59.0 °F 64% 29.86 in 10.0 mi East 4.6 mph - N/A   Clear
8:53 PM 66.0 °F - 60.1 °F 81% 29.88 in 10.0 mi Calm Calm - N/A   Clear
9:53 PM 64.9 °F - 59.0 °F 81% 29.89 in 10.0 mi East 3.5 mph - N/A   Clear
10:53 PM 66.0 °F - 59.0 °F 78% 29.89 in 10.0 mi East 4.6 mph - N/A   Clear
11:53 PM 66.0 °F - 59.0 °F 78% 29.88 in 10.0 mi ENE 4.6 mph - N/A   Clear